Погода в Мурманске

Поиск расширенной информации на нашем сайте:

Полезная информация:

Новости сайта



02.01.2020
Опубликован Долгосрочный прогноз погоды по городам России и ближнего зарубежья на январь 2020 года.
Карты: Прогноз на январь и февраль 2020 года, Сравнение прогнозируемой аномалии приземной температуры воздуха на январь 2020 года по разным моделям.




Погода в Мурманске - сегодня

Время (UTC), дата Ветер
(°,м/с) 
Видим.   Явления Облачность Т
(°С)
Тd
(°С)
f(%) Тe
(°С)
Pmin
(гПа)
dP
(гПа)
Po
(мм)
O2
(г/м3)
Тmin Tmax R s Состояние
почвы
03 29.11.20 200 (Ю) 9-14{16}  10 км    8/0 средняя 
[Ac trans]
-2.4 -5.3 80 -8  1023.8  -1.5  763  311  -3.7         
06 29.11.20 200 (Ю) 9-14{14}  10 км    9/9 600 м 
[Sc]
-2.3 -5.3 80 -7  1023.3  -0.5  763  311  -2.8      равномерный
сухой снег
100% 
09 29.11.20 210 (ЮЗ) 7-12{14}  20000 м    10/10 600 м 
[Sc]
-1.5 -4.4 81 -6  1023.6  0.3  763  310           
12 29.11.20 210 (ЮЗ) 8-12{13}  20000 м    н/о 
-1.4 -4.3 81 -6  1023  -0.6  762  309           
15 29.11.20 200 (Ю) 7-11{13}  10 км    9/5 600 м средняя 
[Sc|Ac trans]
-2.6 -5.2 82 -7  1022.1  -0.9  762  310           
18 29.11.20 190 (Ю) 8-11{14}  10 км    8/5 600 м средняя 
[Sc|Ac trans]
-2.6 -5.1 83 -7  1021.4  -0.7  761  310    -1.2       
21 29.11.20 200 (Ю) 8-12{14}  10 км    8/4 600 м средняя 
[Sc|Ac trans]
-2 -4.6 82 -7  1020.1  -1.3  760  309           
00 30.11.20 200 (Ю) 10-16{16}  10 км    8/4 600 м средняя 
[Sc|Ac trans]
-0.9 -3.9 80 -6  1018.6  -1.4  759  307           
03 30.11.20 210 (ЮЗ) 10-13{17}  10 км    8/4 600 м средняя 
[Sc|Ac trans]
-0.4 -3.4 80 -5  1017.6  -1  758  306  -2.8         
06 30.11.20 200 (Ю) 8-13{15}  10 км    10/10 300 м 
[Sc]
-0.3 -3.4 80 -5  1016.6  -1  758  306  -2.6      равномерный
мокрый или
старый снег
100% 
09 30.11.20 200 (Ю) 9-14{15}  20000 м    10/10 600 м 
[Sc]
-0.2 -3.3 80 -5  1015.5  -1.1  757  306           
12 30.11.20 200 (Ю) 9-13{15}  20000 м    9/9 300 м 
[Sc]
-1 -4.2 79 -6  1014.8  -0.7  756  306           
15 30.11.20 200 (Ю) 8-13{13}  10 км  {ливн. осадки}  10/10 600 м кучево-дожд. 
[Cb cap]
-1 -5 74 -5  1013  -1.8  755  306      0.0     
18 30.11.20 200 (Ю) 10-15{16}  10 км  {ливн. осадки}  10/10 600 м кучево-дожд. 
[Cb cap]
-1.5 -5.3 75 -7  1011.3  -1.7  754  306    -0.1  0.0     
21 30.11.20 200 (Ю) 9-13{16}  10 км    8/3 1000 м средняя 
[Sc|Ac trans]
-2 -5.3 78 -7  1010  -1.3  753  306           
00 01.12.20 200 (Ю) 7-12{14}  10 км    9/6 600 м кучево-дожд., средняя 
[Cb cap|Ac trans]
-1 -4.2 79 -5  1008.7  -1.3  752  304           
03 01.12.20 200 (Ю) 8-11{13}  10 км    10/9 600 м кучево-дожд., средняя 
[Cb cap|Ac und]
-0.7 -4.1 78 -5  1007.4  -1.2  751  304  -2.1         
06 01.12.20 200 (Ю) 7-10{12}  10 км    9/8 600 м кучево-дожд., средняя 
[Cb cap|Ac trans]
-0.5 -3.8 78 -4  1006.6  -0.8  750  303  -2.1      равномерный
мокрый или
старый снег
100% 
09 01.12.20 210 (ЮЗ) 7-10{11}  20000 м    9/8 1000 м средняя 
[Sc|Ac As]
-0.3 -3.7 78 -4  1006.1  -0.5  750  303           
12 01.12.20 200 (Ю) 5-8{11}  4000 м  слаб. снег  10/6 300 м средняя 
[Frnb|As op]
-0.8 -1.8 93 -4  1006.3  0.2  750  303           
15 01.12.20 210 (ЮЗ) 3-5{08}  10 км  слаб. снег  10/0 средняя 
[As op]
-0.7 -1.5 94 -3  1007.9  1.6  751  304      0.8     
18 01.12.20 190 (Ю) 1-2{06}  20000 м  в посл. час снег  9/0 2000 м средняя 
[Ac trans]
-0.7 -1.8 92 1010.8  2.8  753  305    -0.3     
21 01.12.20 340 (С) 4-6{07}  10 км    9/0 средняя 
[Ac trans]
-0.2 -4 75 -3  1014  3.2  756  305           
00 02.12.20 250 (З) 1-3{07}  10 км    3/0 средняя 
[Ac trans]
-2.7 -6.1 77 -2  1017.3  3.2  758  309           
03 02.12.20 210 (ЮЗ) 4-5{05}  10 км    6/0 средняя 
[Ac trans]
-5 -7.4 83 -8  1018.3  759  312  -5    0.5     
Время (UTC), дата Ветер
(°,м/с) 
Видим.   Явления Облачность Т
(°С)
Тd
(°С)
f(%) Тe
(°С)
Pmin
(гПа)
dP
(гПа)
Po
(мм)
O2
(г/м3)
Тmin Tmax R s Состояние
почвы

Для получения пояснительной информации подведите курсор к названию столбца.

ПОГОДА в Мурманске - архив

Всё, что Вы хотите узнать о погоде в Мурманске - удобно и подробно!

Выберите нужную дату (начиная с 1 января 2019* года) и нажмите кнопку "Найти".
Будут отображены архивные сводки погоды по пункту Мурманск, начиная с указанной даты.


Отображать данные в формате CSV (для использования в таблицах Excel)


Внимание! Наш архив погоды предназначен исключительно для личного некоммерческого использования в познавательных целях. Если Вам необходимы официальные справки о состоянии погоды (для производственных, юридических, коммерческих и т.п. целей), обращайтесь в органы Росгидромета.

*Примечание: данная дата относится к архиву по метеостанциям СССР (Россия, СНГ, Балтия).
Архив по метеостанциям Зарубежной Европы и Азии (кроме Китая) хранится 10 дней, по другим регионам земного шара (Китай, Африка, Америка, Австралия, Океания) - 1 день.

Мурманск - район местоположения метеостанции


Название, широта, долгота, высота метеостанции:
Мурманск (город) 69°ш. 33.1°д. 51 м над ур. моря [Российская Федерация]

Дополнительная информация

В oтличие oт бoльшинства пoгoдных сайтoв мы публикуем пoдрoбную метеoинфoрмацию в детальнoм прoфессиoнальнoм фoрмате.

Характеристики температуры и влажнoсти вoздуха измеряются на высoте 2 м в тени вдали oт зданий и деревьев.
Скoрoсть ветра измеряется на высoте 10 м (на урoвне рoста челoвека скoрoсть ветра ниже в 1.5-2 раза). Если метеoстанция нахoдится в гoрoде или в лесу, тo скoрoсть ветра занижена на 2-4 м/с пo сравнению с oткрытым местoм. Скoрoсть ветра над акватoриями крупных рек и oзёр, а также на вершинах хoлмoв на 2-5 м/с выше, чем в oбычных услoвиях.
Атмoсфернoе давление в разных тoчках местнoсти мoжет значительнo oтличаться oт давления на метеoстанции, в зависимoсти oт услoвий рельефа (при пoдъёме на 10 м давление пoнижается примернo на 1 мм рт.ст.).